TimeCST,TemperatureF,Dew PointF,Humidity,Sea Level PressureIn,VisibilityMPH,Wind Direction,Wind SpeedMPH,Gust SpeedMPH,PrecipitationIn,Events,Conditions,WindDirDegrees,DateUTC
12:55 AM,10.0,-0.0,64,30.53,10.0,North,11.5,-,N/A,,Clear,360,2013-01-24 06:55:00
1:55 AM,8.1,-0.0,70,30.54,10.0,North,10.4,-,N/A,,Clear,10,2013-01-24 07:55:00
2:55 AM,7.0,-0.9,70,30.57,10.0,NNE,11.5,-,N/A,,Clear,20,2013-01-24 08:55:00
3:55 AM,7.0,-2.0,67,30.58,10.0,North,6.9,-,N/A,,Clear,360,2013-01-24 09:55:00
4:55 AM,6.1,-2.0,69,30.60,10.0,North,6.9,-,N/A,,Clear,10,2013-01-24 10:55:00
5:55 AM,6.1,-2.0,69,30.59,10.0,NNE,9.2,-,N/A,,Clear,30,2013-01-24 11:55:00
6:55 AM,6.1,-2.9,67,30.61,10.0,NNE,6.9,-,N/A,,Clear,30,2013-01-24 12:55:00
7:55 AM,6.1,-2.0,69,30.62,10.0,NE,5.8,-,N/A,,Clear,40,2013-01-24 13:55:00
8:55 AM,8.1,-0.9,67,30.64,10.0,NE,12.7,-,N/A,,Clear,50,2013-01-24 14:55:00
9:55 AM,10.9,-0.0,61,30.64,10.0,ENE,11.5,-,N/A,,Clear,70,2013-01-24 15:55:00
10:55 AM,14.0,-0.0,54,30.62,10.0,ENE,11.5,-,N/A,,Clear,70,2013-01-24 16:55:00
11:55 AM,16.0,-2.0,45,30.57,10.0,East,12.7,-,N/A,,Clear,90,2013-01-24 17:55:00
12:55 PM,18.0,-0.0,45,30.53,10.0,ESE,11.5,-,N/A,,Clear,120,2013-01-24 18:55:00
1:55 PM,19.0,-0.0,43,30.50,10.0,ESE,13.8,-,N/A,,Clear,120,2013-01-24 19:55:00
2:55 PM,19.9,-0.0,42,30.47,10.0,ESE,12.7,-,N/A,,Clear,110,2013-01-24 20:55:00
3:55 PM,19.9,-0.0,42,30.44,10.0,SE,12.7,18.4,N/A,,Clear,130,2013-01-24 21:55:00
4:55 PM,19.9,1.9,46,30.40,10.0,ESE,15.0,20.7,N/A,,Clear,110,2013-01-24 22:55:00
5:55 PM,19.9,3.9,50,30.40,10.0,ESE,11.5,-,N/A,,Clear,120,2013-01-24 23:55:00
6:55 PM,19.9,3.9,50,30.38,10.0,ESE,10.4,-,N/A,,Clear,120,2013-01-25 00:55:00
7:55 PM,19.9,5.0,52,30.32,10.0,ESE,17.3,-,N/A,,Clear,120,2013-01-25 01:55:00
8:55 PM,21.0,6.1,53,30.34,10.0,SE,12.7,-,N/A,,Overcast,140,2013-01-25 02:55:00
9:55 PM,21.0,7.0,55,30.32,10.0,SE,11.5,-,N/A,,Overcast,140,2013-01-25 03:55:00
10:23 PM,21.2,6.8,54,30.25,10.0,SE,9.2,-,N/A,,Overcast,140,2013-01-25 04:23:00
10:55 PM,21.0,7.0,55,30.30,10.0,SE,10.4,-,N/A,,Overcast,130,2013-01-25 04:55:00
11:55 PM,21.9,8.1,55,30.27,10.0,SE,8.1,-,N/A,,Overcast,130,2013-01-25 05:55:00